Weather History for Danbury, CT

Change the Weather History Date:

Wednesday, January 4, 2012

  Actual Average Record
Temperature  
Mean Temperature 16 °F -  
Max Temperature 23 °F 37 °F 62 °F (1950)
Min Temperature 9 °F 22 °F -12 °F (1981)
Degree Days  
Heating Degree Days 49    
Moisture  
Dew Point 3 °F    
Average Humidity 54    
Maximum Humidity 67    
Minimum Humidity 37    
Precipitation  
Precipitation 0.00 in - - ()
Sea Level Pressure  
Sea Level Pressure 30.09 in    
Wind  
Wind Speed 6 mph (West)    
Max Wind Speed 9 mph    
Max Gust Speed 17 mph    
Visibility 10 miles    
Events      
Averages and records for this station are not official NWS values.
T = Trace of Precipitation, MM = Missing Value Source: NWS Daily Summary

Daily Weather History Graph

Daily Weather History Graph

Search for Another Location

Airport:

Trip Planner

Search our weather history database for the weather conditions in past years. The results will help you decide how hot, cold, wet, or windy it might be!

Date:

Astronomy

Jan. 04, 2012 Rise Set
Actual Time 7:20 AM EST 4:37 PM EST
Civil Twilight 6:49 AM EST 5:08 PM EST
Nautical Twilight 6:14 AM EST 5:43 PM EST
Astronomical Twilight 5:40 AM EST 6:16 PM EST
Moon 12:59 PM EST (1/4) 3:05 AM EST (1/4)
Length of Visible Light 10h 19m
Length of Day
9h 17m
Waxing Gibbous, 80% of the Moon is Illuminated
Jan 4
Waxing Gibbous
Jan 9
Full
Jan 16
Last Quarter
Jan 23
New
Jan 30
First Quarter

Hourly Weather History & Observations

Time (EST) Temp. Windchill Dew Point Humidity Pressure Visibility Wind Dir Wind Speed Gust Speed Precip Events Conditions
12:53 AM 10.9 °F -0.8 °F -2.9 °F 54% 30.12 in 10.0 mi NNW 8.1 mph 17.3 mph N/A   Clear
1:53 AM 10.0 °F -2.9 °F -2.0 °F 58% 30.13 in 10.0 mi NW 9.2 mph - N/A   Clear
2:53 AM 10.0 °F -0.9 °F -0.9 °F 61% 30.16 in 10.0 mi NNW 6.9 mph - N/A   Clear
3:53 AM 9.0 °F 2.4 °F -0.0 °F 67% 30.17 in 10.0 mi NW 3.5 mph - N/A   Clear
4:53 AM 9.0 °F 2.4 °F -0.0 °F 67% 30.15 in 10.0 mi WNW 3.5 mph - N/A   Clear
5:53 AM 9.0 °F - -0.0 °F 67% 30.16 in 10.0 mi Calm Calm - N/A   Clear
6:53 AM 9.0 °F 2.4 °F -0.0 °F 67% 30.17 in 10.0 mi Variable 3.5 mph - N/A   Clear
7:53 AM 10.0 °F -0.9 °F 1.0 °F 67% 30.20 in 10.0 mi WNW 6.9 mph - N/A   Clear
8:53 AM 12.9 °F 2.6 °F 1.9 °F 62% 30.22 in 10.0 mi Variable 6.9 mph - N/A   Clear
9:53 AM 15.1 °F 7.7 °F 1.9 °F 56% 30.20 in 10.0 mi West 4.6 mph - N/A   Clear
10:53 AM 18.0 °F 7.7 °F 3.0 °F 52% 30.16 in 10.0 mi West 8.1 mph - N/A   Clear
11:53 AM 19.9 °F 14.9 °F 3.0 °F 48% 30.12 in 10.0 mi Variable 3.5 mph - N/A   Clear
12:53 PM 23.0 °F 13.9 °F 6.1 °F 48% 30.09 in 10.0 mi West 8.1 mph - N/A   Mostly Cloudy
1:53 PM 23.0 °F 14.7 °F 5.0 °F 46% 30.06 in 10.0 mi SW 6.9 mph - N/A   Scattered Clouds
2:53 PM 23.0 °F 13.9 °F 1.9 °F 40% 30.04 in 10.0 mi SW 8.1 mph - N/A   Clear
3:53 PM 23.0 °F 17.0 °F 1.0 °F 39% 30.04 in 10.0 mi WSW 4.6 mph - N/A   Scattered Clouds
4:53 PM 23.0 °F 18.4 °F -0.0 °F 37% 30.03 in 10.0 mi WSW 3.5 mph - N/A   Overcast
5:53 PM 23.0 °F 13.9 °F 1.0 °F 39% 30.02 in 10.0 mi SSW 8.1 mph - N/A   Overcast
6:53 PM 23.0 °F 14.7 °F 3.0 °F 42% 30.03 in 10.0 mi SW 6.9 mph - N/A   Partly Cloudy
7:53 PM 21.9 °F 12.5 °F 6.1 °F 51% 30.02 in 10.0 mi SW 8.1 mph - N/A   Clear
8:53 PM 21.9 °F 12.5 °F 9.0 °F 58% 30.00 in 10.0 mi WSW 8.1 mph - N/A   Clear
9:53 PM 21.9 °F 17.2 °F 9.0 °F 58% 29.99 in 10.0 mi Variable 3.5 mph - N/A   Clear
10:53 PM 21.9 °F 14.5 °F 10.0 °F 60% 29.98 in 10.0 mi West 5.8 mph - N/A   Clear
11:53 PM 21.0 °F 14.6 °F 10.0 °F 63% 29.96 in 10.0 mi WSW 4.6 mph - N/A   Clear